Livermore, CA

10:19 AM PDT on May 27, 2017 (GMT -0700)
Livermore Municipal

Weather History for KLVK - April, 2012

Change the Weather History Date:

Tuesday, April 10, 2012

  Actual Average Record
Temperature  
Mean Temperature 55 °F 55 °F  
Max Temperature 57 °F 67 °F 88 °F (1951)
Min Temperature 52 °F 44 °F 31 °F (1933)
Degree Days  
Heating Degree Days 10 10  
Month to date heating degree days 123 104  
Since 1 July heating degree days 2388 2468  
Cooling Degree Days 0 0  
Month to date cooling degree days 0 0  
Year to date cooling degree days 0 1  
Growing Degree Days 4 (Base 50)    
Moisture  
Dew Point 47 °F    
Average Humidity 70    
Maximum Humidity 93    
Minimum Humidity 46    
Precipitation  
Precipitation 0.22 in 0.04 in 1.30 in (1952)
Month to date precipitation 0.24 0.41  
Year to date precipitation 5.35 8.65  
Since 1 July precipitation 7.26  
Sea Level Pressure  
Sea Level Pressure 29.86 in    
Wind  
Wind Speed 3 mph (West)    
Max Wind Speed 10 mph    
Max Gust Speed 14 mph    
Visibility 10 miles    
Events Rain    
T = Trace of Precipitation, MM = Missing Value Source: NWS Daily Summary

Daily Weather History Graph

Daily Weather History Graph

Search for Another Location

Airport or City:

Trip Planner

Search our weather history database for the weather conditions in past years. The results will help you decide how hot, cold, wet, or windy it might be!

Date:

Astronomy

Apr. 10, 2012 Rise Set
Actual Time 6:38 AM PDT 7:38 PM PDT
Civil Twilight 6:11 AM PDT 8:05 PM PDT
Nautical Twilight 5:39 AM PDT 8:37 PM PDT
Astronomical Twilight 5:06 AM PDT 9:10 PM PDT
Moon No Moon Rise 9:33 AM PDT (4/10)
Length of Visible Light 13h 54m
Length of Day
13h 00m
Waning Gibbous, 78% of the Moon is Illuminated
Apr 10
Waning Gibbous
Apr 13
Last Quarter
Apr 21
New
Apr 29
First Quarter
May 5
Full

Hourly Weather History & Observations

Time (PDT) Temp. Dew Point Humidity Pressure Visibility Wind Dir Wind Speed Gust Speed Precip Events Conditions
12:53 AM 52.0 °F 37.0 °F 57% 29.87 in 10.0 mi West 10.4 mph - N/A   Clear
1:53 AM 54.0 °F 34.0 °F 47% 29.86 in 10.0 mi NW 6.9 mph - N/A   Clear
2:53 AM 57.0 °F 37.0 °F 47% 29.86 in 10.0 mi Calm Calm - N/A   Overcast
3:53 AM 55.9 °F 41.0 °F 57% 29.87 in 10.0 mi SSW 4.6 mph - N/A   Overcast
4:53 AM 55.0 °F 41.0 °F 59% 29.87 in 10.0 mi WSW 8.1 mph - N/A   Overcast
5:53 AM 54.0 °F 42.1 °F 64% 29.87 in 10.0 mi West 4.6 mph - N/A   Overcast
6:53 AM 54.0 °F 43.0 °F 66% 29.87 in 10.0 mi West 5.8 mph - 0.00 in   Overcast
7:53 AM 53.1 °F 46.9 °F 80% 29.89 in 10.0 mi Calm Calm - 0.00 in Rain Light Rain
8:13 AM 53.6 °F 46.4 °F 77% 29.89 in 10.0 mi West 3.5 mph - 0.00 in   Overcast
8:53 AM 52.0 °F 46.9 °F 83% 29.89 in 10.0 mi Calm Calm - 0.00 in Rain Light Rain
9:53 AM 52.0 °F 48.9 °F 89% 29.90 in 10.0 mi ENE 3.5 mph - 0.00 in   Overcast
10:12 AM 53.6 °F 48.2 °F 82% 29.90 in 10.0 mi Calm Calm - N/A   Overcast
10:53 AM 53.1 °F 48.9 °F 86% 29.90 in 10.0 mi Calm Calm - N/A   Overcast
11:42 AM 55.4 °F 48.2 °F 77% 29.89 in 10.0 mi Calm Calm - N/A   Overcast
12:00 PM 55.4 °F 48.2 °F 77% 29.89 in 10.0 mi Calm Calm - N/A   Overcast
12:53 PM 55.0 °F 50.0 °F 83% 29.88 in 7.0 mi Calm Calm - 0.01 in Rain Light Rain
1:53 PM 55.9 °F 51.1 °F 84% 29.87 in 10.0 mi Calm Calm - 0.01 in Rain Light Rain
2:53 PM 55.9 °F 52.0 °F 87% 29.86 in 10.0 mi West 3.5 mph - 0.02 in Rain Light Rain
3:53 PM 55.9 °F 51.1 °F 84% 29.84 in 10.0 mi West 3.5 mph - 0.00 in Rain Light Rain
4:00 PM 55.4 °F 51.8 °F 88% 29.84 in 10.0 mi WSW 4.6 mph - 0.00 in Rain Light Rain
4:53 PM 55.9 °F 52.0 °F 87% 29.83 in 10.0 mi WSW 4.6 mph - 0.03 in Rain Light Rain
5:53 PM 55.0 °F 51.1 °F 86% 29.83 in 10.0 mi NW 5.8 mph - 0.02 in Rain Light Rain
6:53 PM 54.0 °F 51.1 °F 90% 29.83 in 8.0 mi Calm Calm - 0.04 in Rain Light Rain
7:53 PM 53.1 °F 51.1 °F 93% 29.83 in 7.0 mi Calm Calm - 0.04 in Rain Light Rain
8:36 PM 53.6 °F 50.0 °F 88% 29.83 in 10.0 mi Calm Calm - 0.01 in Rain Light Rain
8:45 PM 53.6 °F 50.0 °F 88% 29.83 in 10.0 mi Calm Calm - 0.01 in Rain Light Rain
8:53 PM 53.1 °F 50.0 °F 89% 29.83 in 10.0 mi Calm Calm - 0.01 in Rain Light Rain
10:53 PM 53.1 °F 51.1 °F 93% 29.81 in 10.0 mi WNW 4.6 mph - 0.02 in Rain Light Rain
11:53 PM 52.0 °F 48.9 °F 89% 29.82 in 10.0 mi West 5.8 mph - 0.01 in Rain Light Rain